Flag for Norway Weather past 2 weeks in Raufoss, Norway

Now
49 °F

Cool.


Feels Like: 48 °F
Forecast: 40 / 54 °F
Wind: 3 mph from North

Location: Lillehammer-Saetherengen

Current Time: May 25, 2015 at 10:16:51 PM

Latest Report: May 25, 2015 at 9:00 PM


Visibility: N/A

Pressure: 29.72 "Hg

Humidity: 65%

Dew point: 38 °F

Location of RaufossLocation

Historic Weather in Raufoss — Graph

°F

Raufoss temperature yesterday

Maximum temperature yesterday: 52 °F (at 1:00 PM)
Minimum temperature yesterday: 38 °F (at 5:00 AM)
Average temperature yesterday: 44 °F

Past Weeks' High & Low Weather Summary

 TemperatureHumidityPressure
High59 °F (May 21, 7:00 PM)96% (May 17, 12:00 AM)30.10 "Hg (May 17, 12:00 AM)
Low35 °F (May 15, 6:00 AM)20% (May 15, 6:00 PM)29.47 "Hg (May 12, 10:00 PM)
Average45 °F69%29.77 "Hg
* Reported May 10 9:00 PM — May 25 9:00 PM, Raufoss, Weather by CustomWeather, © 2015

Note: Actual official high and low records may vary slightly from our data, if they occured in-between our weather recording intervals... More about our weather records

Advertising

Raufoss weather history for previous 24 hours

 ConditionsComfort  
Time TempWeatherWind HumidityBarometerVisibility
9:00 PM
Mon, May 25
49 °FCool.3 mph65%29.72 "HgN/A
8:00 PM51 °FCool.3 mph62%29.71 "HgN/A
7:00 PM50 °FCool.3 mph63%29.70 "HgN/A
6:00 PM51 °FCool.6 mph61%29.70 "HgN/A
5:00 PM51 °FCool.1 mph62%29.69 "HgN/A
4:00 PM50 °FCool.3 mph68%29.69 "HgN/A
3:00 PM50 °FCool.2 mph71%29.68 "HgN/A
2:00 PM53 °FCool.2 mph56%29.67 "HgN/A
1:00 PM54 °FCool.3 mph55%29.66 "HgN/A
12:00 PM51 °FCool.3 mph58%29.67 "HgN/A
11:00 AM50 °FCool.3 mph68%29.68 "HgN/A
10:00 AM47 °FCool.3 mph79%29.68 "HgN/A
9:00 AM47 °FCool.5 mph83%29.67 "HgN/A
8:00 AM45 °FCool.1 mph96%29.67 "HgN/A
7:00 AM44 °FQuite cool.1 mph96%29.67 "HgN/A
6:00 AM44 °FQuite cool.2 mph96%29.68 "HgN/A
5:00 AM44 °FQuite cool.1 mph96%29.68 "HgN/A
4:00 AM44 °FQuite cool.1 mph95%29.69 "HgN/A
3:00 AM44 °FQuite cool.No wind95%29.70 "HgN/A
2:00 AM44 °FQuite cool.No wind96%29.70 "HgN/A
1:00 AM44 °FQuite cool.No wind94%29.71 "HgN/A
12:00 AM44 °FQuite cool.No wind94%29.72 "HgN/A
11:00 PM
Sun, May 24
44 °FQuite cool.No wind93%29.74 "HgN/A
10:00 PM44 °FQuite cool.1 mph91%29.75 "HgN/A
Weather by CustomWeather, © 2015

See weather overviewHow to use our weather pages